Flag for Chile Weather past 2 weeks in Viña del Mar, Chile

Now
54 °F

Clear.


Feels Like: 54 °F
Forecast: 53 / 65 °F
Wind: 2 mph from North

Location: Pudahuel


UV Index: 5 (Moderate)

Visibility: 10 mi


Pressure: 30.04 "Hg

Humidity: 35%

Dew point: 27 °F

Location of Viña del MarLocation

Historic Weather in Viña del Mar

°F

Viña del Mar temperature yesterday

Maximum temperature yesterday: 72 °F (at 5:00 PM)
Minimum temperature yesterday: 46 °F (at 8:00 AM)
Average temperature yesterday: 59 °F

Past Weeks' High & Low Weather Summary

 TemperatureHumidityPressure
High86 °F (Apr 13, 5:00 PM)94% (Apr 6, 11:00 AM)30.21 "Hg (Apr 6, 11:00 AM)
Low41 °F (Apr 13, 8:00 AM)7% (Apr 13, 5:00 PM)29.86 "Hg (Apr 14, 4:00 PM)
Average59 °F50%30.02 "Hg
* Reported Apr 3 10:00 PM — Apr 18 10:00 PM, Viña del Mar, Weather by CustomWeather, © 2014

Note: Actual official high and low records may vary slightly from our data, if they occured in-between our weather recording intervals... More about our weather records

Advertising

Historic Weather Conditions — Data for Previous 24 hours

 ConditionsComfort  
Time TempWeatherWind HumidityBarometerVisibility
10:00 PM
Apr 18
54 °FClear.2 mph35%30.04 "Hg10 mi
9:00 PM57 °FPassing clouds.1 mph29%30.01 "HgN/A
8:00 PM64 °FPassing clouds.5 mph21%30.01 "HgN/A
7:00 PM70 °FPassing clouds.5 mph12%30.01 "HgN/A
6:00 PM70 °FScattered clouds.7 mph15%30.01 "HgN/A
5:00 PM70 °FPartly sunny.8 mph20%30.01 "HgN/A
4:00 PM68 °FPartly sunny.10 mph24%30.01 "HgN/A
3:00 PM68 °FPartly sunny.7 mph24%30.01 "HgN/A
2:00 PM66 °FPartly sunny.1 mph32%30.01 "HgN/A
1:00 PM61 °FPartly sunny.1 mph39%30.04 "HgN/A
12:00 PM57 °FBroken clouds.3 mph39%30.04 "HgN/A
11:00 AM52 °FBroken clouds.5 mph50%30.04 "HgN/A
10:00 AM46 °FClear.2 mph62%30.04 "Hg3 mi
9:00 AM45 °FClear.No wind61%30.01 "Hg3 mi
8:00 AM43 °FClear.No wind66%30.01 "Hg3 mi
7:00 AM45 °FClear.1 mph61%30.01 "Hg4 mi
6:00 AM46 °FClear.3 mph66%29.98 "Hg4 mi
5:00 AM43 °FClear.No wind71%30.01 "Hg4 mi
4:00 AM46 °FClear.2 mph62%30.01 "Hg4 mi
3:00 AM48 °FClear.1 mph62%30.04 "Hg5 mi
2:00 AM48 °FClear.1 mph62%30.04 "Hg10 mi
1:00 AM48 °FClear.2 mph62%30.04 "Hg10 mi
12:00 AM54 °FClear.2 mph47%30.04 "Hg10 mi
11:00 PM
Apr 17
55 °FClear.2 mph51%30.04 "Hg10 mi
Weather by CustomWeather, © 2014

See weather overview